User: anonymous   Login
Location: Bandys
(35.4750°N, 81.0830°W)
Time: 05:33:22
(UTC-05:00)
Language:

DELTA 2 R/B (1) - Orbit

View from above orbital plane
View from above orbital plane
View from above satellite
View from above satellite

Ground track
Ground track

The orbit data is extracted from the following two-line orbital elements,

1 27665U 03005C   16037.57945270  .00000057  00000-0  56237-4 0  9999
2 27665  39.5758 118.7989 0009687 284.1653 210.5326 14.28389132679908
Epoch (UTC): 06 February 2016 13:54:24
Eccentricity: 0.0009687
inclination: 39.5758°
perigee height: 790 km
apogee height: 804 km
right ascension of ascending node: 118.7989°
argument of perigee: 284.1653°
revolutions per day: 14.28389132
mean anomaly at epoch: 210.5326°
orbit number at epoch: 67990

The dashed part of the orbit path shows where the satellite is in the earth's shadow,  

DLR